Location: Seoul
(37.5670°N, 127.0000°E)
Time: 23:07:56
(UTC+09:00)

ACS3 Solar Sail - Visible Passes

Search period start: 21 June 2024 00:00
Search period end: 01 July 2024 00:00
Orbit: 992 x 1024 km, 97.4° (Epoch: 20 June)

Date Brightness Start Highest point End Pass type
(mag) Time Alt. Az. Time Alt. Az. Time Alt. Az.
21 Jun 6.2 20:54:09 11° ESE 20:58:36 24° ENE 21:03:24 10° NNE visible
21 Jun 5.4 22:39:30 30° SSW 22:42:19 50° W 22:48:21 10° NNW visible
22 Jun 5.3 21:28:56 21° SE 21:32:43 45° ENE 21:38:34 10° N visible
22 Jun 6.4 23:14:17 19° SW 23:16:57 26° W 23:22:01 10° NW visible
23 Jun 6.7 20:21:21 10° E 20:23:50 13° ENE 20:26:18 10° NE visible
23 Jun 4.8 22:03:44 31° SSE 22:07:00 87° ENE 22:13:15 10° N visible
23 Jun 7.1 23:49:32 10° WSW 23:51:48 12° W 23:54:04 10° WNW visible
24 Jun 6.1 20:53:11 11° ESE 20:57:44 25° ENE 21:02:35 10° NNE visible
24 Jun 5.5 22:38:32 29° SSW 22:41:28 49° W 22:47:28 10° NNW visible
25 Jun 5.3 21:27:59 21° SE 21:31:50 47° ENE 21:37:44 10° N visible
25 Jun 6.4 23:13:20 18° SW 23:16:07 25° W 23:21:06 10° NW visible
26 Jun 4.8 22:02:47 30° SSE 22:06:08 89° ENE 22:12:23 10° NNW visible
26 Jun 7.1 23:49:02 10° WSW 23:50:58 11° W 23:52:55 10° WNW visible
27 Jun 6.1 20:52:14 11° ESE 20:56:51 25° ENE 21:01:46 10° NNE visible
27 Jun 5.5 22:37:35 27° SSW 22:40:37 47° W 22:46:35 10° NNW visible
28 Jun 5.2 21:27:03 21° SE 21:30:59 48° ENE 21:36:54 10° N visible
28 Jun 6.5 23:12:22 17° SW 23:15:17 24° W 23:20:10 10° NW visible
29 Jun 4.8 22:01:50 29° SSE 22:05:16 88° WSW 22:11:31 10° NNW visible
29 Jun 7.2 23:48:35 10° WSW 23:50:08 11° W 23:51:41 10° WNW visible
30 Jun 6.0 20:51:18 11° ESE 20:55:58 26° ENE 21:00:58 10° NNE visible
30 Jun 5.6 22:36:39 26° SSW 22:39:46 45° W 22:45:42 10° NNW visible
